Header for Extended Forecast Station List Page

Search by: ID | Name | Date | Parm | Value | Avg | % Avg
Sort by: ID | Name | Date | Parm | Value | Avg | % Avg

Enter search or view all records.

Click on id for station plot
#IDNameDateParmValueAvg% Avg
0LYDM8KOOTENAI-LIBBY DAM04-21-2014INFLOW (KAF)60495761105
1LEOI1KOOTENAI-AT LEONIA04-21-2014DISCHARGE (KAF)5121521898
2BFEI1KOOTENAI-AT BONNERS FERRY04-21-2014STAGE (FT)MMM
3FCFM8NF FLATHEAD-NEAR COLUMBIA FALLS04-21-2014DISCHARGE (KAF)17761552114
4WGCM8MF FLATHEAD-NEAR WEST GLACIER04-21-2014DISCHARGE (KAF)18631505124
5HHWM8SF FLATHEAD-HUNGRY HORSE DAM04-21-2014INFLOW (KAF)20101807111
6CFMM8FLATHEAD-AT COLUMBIA FALLS04-21-2014DISCHARGE (KAF)46553962117
7DLGM8CLARK FORK-AT DEER LODGE04-21-2014DISCHARGE (KAF)8070114
8DRMM8CLARK FORK-NR DRUMMOND04-21-2014DISCHARGE (KAF)303MM
9RCCM8ROCK CREEK-NEAR CLINTON04-21-2014DISCHARGE (KAF)404251161
10BONM8BLACKFOOT-NEAR BONNER04-21-2014DISCHARGE (KAF)1188762156
11ABOM8CLARK FORK-ABOVE MISSOULA04-21-2014DISCHARGE (KAF)19751340147
12BITM8BITTERROOT-NEAR MISSOULA04-21-2014DISCHARGE (KAF)15371146134
13BELM8CLARK FORK-BELOW MISSOULA04-21-2014DISCHARGE (KAF)35122527139
14STRM8ST. REGIS-NEAR ST. REGIS04-21-2014DISCHARGE (KAF)248218114
15SRGM8CLARK FORK-AT ST REGIS04-21-2014DISCHARGE (KAF)43393361129
16KERM8FLATHEAD-KERR DAM04-21-2014INFLOW (KAF)56154930114
17NOXM8CLARK FORK-NOXON RAPIDS DAM04-21-2014INFLOW (KAF)98628356118
18CABI1CLARK FORK-CABINET GORGE DAM04-21-2014INFLOW (KAF)108618846123
19PRTI1PRIEST-NEAR PRIEST RIVER04-21-2014DISCHARGE (KAF)60969288
20ALFW1PEND OREILLE-ALBENI FALLS DAM04-21-2014INFLOW (KAF)1154310203113
21HOPI1PEND OREILLE-PEND OREILLE LAKE NR HOPE04-21-2014LAKE ELEVATION (FT)MMM
22COEI1COEUR D ALENE-COEUR D ALENE LAKE04-21-2014INFLOW (KAF)21611995108
23SPOW1SPOKANE-AT SPOKANE04-21-2014DISCHARGE (KAF)2219MM
24LLKW1SPOKANE-AT LONGLAKE04-21-2014INFLOW (KAF)2436248398
25SATI1ST MARIES-NEAR SANTA04-21-2014DISCHARGE (KAF)749776
26SJMI1ST JOE-AT ST MARIES04-21-2014STAGE (FT)MMM
27CIBW1COLUMBIA-AT INTL BOUNDARY04-21-2014DISCHARGE (KAF)33675MM
28LAUW1KETTLE-AT LAURIER04-21-2014DISCHARGE (KAF)17761603111
29GCDW1COLUMBIA-GRAND COULEE DAM04-21-2014INFLOW (KAF)379704167091
30CHJW1COLUMBIA-CHIEF JOSEPH DAM04-21-2014INFLOW (KAF)3350331354107
31TONW1OKANOGAN-NEAR TONASKET04-21-2014DISCHARGE (KAF)14931390107
32PATW1METHOW-NEAR PATEROS04-21-2014DISCHARGE (KAF)895805111
33WELW1COLUMBIA-WELLS DAM04-21-2014INFLOW (KAF)3589833935106
34CHDW1CHELAN-LAKE CHELAN DAM04-21-2014INFLOW (KAF)93196497
35RRHW1COLUMBIA-ROCKY REACH DAM04-21-2014INFLOW (KAF)3664734514106
36ARDW1ENTIAT-NEAR ARDENVOIR04-21-2014DISCHARGE (KAF)215191113
37PESW1WENATCHEE-AT PESHASTIN04-21-2014DISCHARGE (KAF)14021337105
38WANW1COLUMBIA-WANAPUM DAM04-21-2014INFLOW (KAF)380174135892
39PRWW1COLUMBIA-PRIEST RAPIDS DAM04-21-2014INFLOW (KAF)380214221390
40KEDW1YAKIMA-KEECHELUS LAKE04-21-2014INFLOW (KAF)9795101
41KADW1KACHESS-KACHESS DAM04-21-2014INFLOW (KAF)848895
42EASW1YAKIMA-AT EASTON04-21-2014DISCHARGE (KAF)15790175
43CLUW1CLE ELUM-CLE ELUM LAKE04-21-2014INFLOW (KAF)378347109
44TNAW1TEANAWAY-BELOW FORKS04-21-2014DISCHARGE (KAF)8986103
45UMTW1YAKIMA-AT UMTANUM04-21-2014DISCHARGE (KAF)76180095
46BUDW1BUMPING-BUMPING LAKE DAM04-21-2014INFLOW (KAF)7610573
47CLFW1NACHES-NEAR CLIFFDEL04-21-2014DISCHARGE (KAF)30832296
48RILW1TIETON-RIMROCK LAKE NEAR RIMROCK04-21-2014INFLOW (KAF)192180107
49NACW1NACHES-NEAR NACHES04-21-2014DISCHARGE (KAF)503453111
50PARW1YAKIMA-NEAR PARKER04-21-2014DISCHARGE (KAF)391377104
51KIOW1YAKIMA-AT KIONA04-21-2014DISCHARGE (KAF)67371994
52IPDI1HENRYS FORK-ISLAND PARK DAM04-21-2014INFLOW (KAF)17820786
53CHEI1FALLS-NEAR CHESTER04-21-2014DISCHARGE (KAF)352299118
54ANTI1HENRYS FORK-AT ST. ANTHONY04-21-2014DISCHARGE (KAF)634594107
55TEAI1TETON-NEAR ST. ANTHONY04-21-2014DISCHARGE (KAF)442339130
56REXI1HENRYS FORK-AT REXBURG04-21-2014DISCHARGE (KAF)800681117
57JLKW4SNAKE-JACKSON LAKE AT DAM04-21-2014INFLOW (KAF)1015755134
58JKSW4SNAKE-NEAR JACKSON04-21-2014DISCHARGE (KAF)18601627114
59ALPW4SNAKE-NEAR ALPINE04-21-2014DISCHARGE (KAF)23982090115
60PLDI1SF SNAKE-PALISADES DAM04-21-2014INFLOW (KAF)33622966113
61HEII1SNAKE-NEAR HEISE04-21-2014DISCHARGE (KAF)31863089103
62RIDI1WILLOW CREEK-RIRIE DAM04-21-2014INFLOW (KAF)6334182
63SIFI1SNAKE-AB EAGLE ROCK NR IDAHO FALLS04-21-2014DISCHARGE (KAF)25812444106
64SHYI1SNAKE-NEAR SHELLEY04-21-2014DISCHARGE (KAF)23492220106
65SNAI1SNAKE-AT BLACKFOOT04-21-2014DISCHARGE (KAF)17891715104
66BFTI1SNAKE-NEAR BLACKFOOT04-21-2014DISCHARGE (KAF)17331599108
67PIHI1PORTNEUF-AT POCATELLO04-21-2014DISCHARGE (KAF)246139
68AFRI1SNAKE-AMERICAN FALLS RESERVOIR04-21-2014INFLOW (KAF)22242215100
69MILI1SNAKE-AT MILNER04-21-2014DISCHARGE (KAF)4125816
70HOTI1BRUNEAU-NEAR HOT SPRINGS04-21-2014DISCHARGE (KAF)7115546
71SWAI1SNAKE-BELOW SWAN FALLS04-21-2014DISCHARGE (KAF)1461216567
72HWRI1BIG LOST-AT HOWELL RANCH NEAR CHILLY04-21-2014DISCHARGE (KAF)9415959
73MACI1BIG LOST-MACKAY RESERVOIR NEAR MACKAY04-21-2014INFLOW (KAF)8415953
74HALI1BIG WOOD-AT HAILEY04-21-2014DISCHARGE (KAF)18922186
75MAGI1BIG WOOD-MAGIC DAM04-21-2014INFLOW (KAF)14819377
76LWRI1LITTLE WOOD-LITTLE WOOD DAM04-21-2014INFLOW (KAF)236635
77OWYO3OWYHEE-BELOW OWYHEE DAM04-21-2014INFLOW (KAF)4819725
78ARAI1SF BOISE-ANDERSON RANCH DAM04-21-2014INFLOW (KAF)36445081
79LUCI1BOISE-LUCKY PEAK DAM04-21-2014INFLOW (KAF)959MM
80BIGI1BOISE-AT GLENWOOD BRIDGE04-21-2014DISCHARGE (KAF)24143456
81PARI1BOISE-NEAR PARMA04-21-2014DISCHARGE (KAF)20038652
82WRMO3MALHEUR-WARM SPRINGS DAM04-21-2014INFLOW (KAF)151978
83BERO3MALHEUR-AGENCY VALLEY DAM04-21-2014INFLOW (KAF)132846
84BULO3BULLY CREEK-BULLY CREEK DAM04-21-2014INFLOW (KAF)0145
85VALO3MALHEUR-NEAR VALE04-21-2014DISCHARGE (KAF)0421
86CSDI1NF PAYETTE-CASCADE DAM04-21-2014INFLOW (KAF)434429101
87DEDI1DEADWOOD-NEAR LOWMAN04-21-2014INFLOW (KAF)10712686
88EMMI1PAYETTE-NEAR EMMETT04-21-2014DISCHARGE (KAF)957108288
89WSRI1WEISER-NEAR WEISER04-21-2014DISCHARGE (KAF)18428265
90WEII1SNAKE-AT WEISER04-21-2014DISCHARGE (KAF)2879422168
91BRNI1SNAKE-BROWNLEE DAM04-21-2014INFLOW (KAF)3248453272
92WHBI1SALMON-AT WHITEBIRD04-21-2014DISCHARGE (KAF)56645444104
93TRYO3GRANDE RONDE-TROY04-21-2014DISCHARGE (KAF)10161002101
94ANAW1SNAKE-NEAR ANATONE04-21-2014DISCHARGE (KAF)103011180287
95ORFI1CLEARWATER-AT OROFINO04-21-2014DISCHARGE (KAF)49654036123
96DWRI1NF CLEARWATER-DWORSHAK DAM04-21-2014INFLOW (KAF)26262269116
97SPDI1CLEARWATER-AT SPALDING04-21-2014DISCHARGE (KAF)68435996114
98LGDW1SNAKE-LOWER GRANITE DAM04-21-2014INFLOW (KAF)171441785696
99LGSW1SNAKE-LITTLE GOOSE DAM04-21-2014INFLOW (KAF)171421787196
100LMNW1SNAKE-LOWER MONUMENTAL DAM04-21-2014INFLOW (KAF)171841791096
101IHDW1SNAKE-ICE HARBOR DAM04-21-2014INFLOW (KAF)171901780697
102TCHW1WALLA WALLA-NEAR TOUCHET04-21-2014DISCHARGE (KAF)597084
103MCDW1COLUMBIA-MCNARY DAM04-21-2014INFLOW (KAF)560836167891
104GIBO3UMATILLA-NEAR GIBBON04-21-2014DISCHARGE (KAF)464994
105PDTO3UMATILLA-AT PENDLETON04-21-2014DISCHARGE (KAF)778590
106MYKO3MCKAY CREEK-NEAR PILOT ROCK04-21-2014DISCHARGE (KAF)1511140
107UMAO3UMATILLA-NEAR UMATILLA04-21-2014DISCHARGE (KAF)7340182
108MONO3NF JOHN DAY-AT MONUMENT04-21-2014DISCHARGE (KAF)23741158
109SERO3JOHN DAY-AT SERVICE CK04-21-2014DISCHARGE (KAF)35457362
110JDAO3COLUMBIA-JOHN DAY DAM04-21-2014INFLOW (KAF)574786330791
111MODO3DESCHUTES-AT MOODY NR BIGGS04-21-2014DISCHARGE (KAF)1241125399
112TDAO3COLUMBIA-THE DALLES DAM04-21-2014INFLOW (KAF)5774856827102
113PITW1KLICKITAT-NEAR PITT04-21-2014DISCHARGE (KAF)35740788
114HODO3HOOD-NEAR TUCKER BRIDGE04-21-2014DISCHARGE (KAF)15817988
115UNDW1WHITE SALMON-NEAR UNDERWOOD04-21-2014DISCHARGE (KAF)23627785
116BONO3COLUMBIA-BONNEVILLE DAM04-21-2014INFLOW (KAF)58523MM